Simultaneous Nadir Overpasses (SNOs) Predictions

Prediction of SNOs between NOAA-19 and NPP Satellite Orbit:

Table of predicted SNOs for the next 14.0 days since TLE Epoch: 7/25/2020
Index Date (NOAA-19) Time (NOAA-19) Lat,Lon (NOAA-19) SZA (NOAA-19 ) Date (NPP) Time (NPP) Lat,Lon (NPP) SZA (NPP ) Distance(km) Time Diff (sec)
1 07/31/2020 03:23:59 -79.17, -83.24 117.08 07/31/2020 03:25:12 -79.17, -83.09 117.13 3.28 73
2 07/31/2020 04:14:55 79.19, 84.13 62.93 07/31/2020 04:15:58 79.19, 84.07 62.92 1.22 63
3 07/31/2020 05:05:59 -79.19,-108.60 117.06 07/31/2020 05:06:42 -79.17,-108.48 117.11 3.20 43
4 07/31/2020 05:56:55 79.20, 58.78 62.95 07/31/2020 05:57:28 79.19, 58.68 62.94 2.21 33
5 07/31/2020 06:47:59 -79.21,-133.95 117.05 07/31/2020 06:48:13 -79.21,-134.12 117.03 3.62 14
6 07/31/2020 07:38:56 79.19, 33.16 62.97 07/31/2020 07:38:58 79.19, 33.29 62.96 2.91 2
7 07/31/2020 08:30:00 -79.19,-159.57 117.03 07/31/2020 08:29:43 -79.21,-159.51 117.01 2.36 17
8 07/31/2020 09:20:56 79.21, 7.81 62.98 07/31/2020 09:20:28 79.20, 7.90 62.98 2.20 28
9 07/31/2020 10:12:00 -79.21, 175.07 117.01 07/31/2020 10:11:13 -79.21, 175.10 116.99 0.59 47
10 07/31/2020 11:02:56 79.22, -17.54 63.00 07/31/2020 11:01:58 79.20, -17.49 63.00 2.86 58
11 07/31/2020 11:53:58 -79.29, 150.27 117.01 07/31/2020 11:52:45 -79.28, 149.19 116.86 22.28 73
